User: anonymous
Location: Caltech
(34.1382°N, 118.1253°W)
Time: 15:07:48
(UTC-07:00)
Language:

Cosmos 1833 Rocket - Orbit

View from above orbital plane
View from above orbital plane
View from above satellite
View from above satellite

Ground track
Ground track

The orbit data is extracted from the following two-line orbital elements,

1 17590U 87027B   14241.03273783 -.00000282  00000-0 -11741-3 0  7574
2 17590 071.0038 144.3555 0003444 040.3353 319.8025 14.16649460419219
Epoch (UTC): 29 August 2014 00:47:08
Eccentricity: 0.0003444
inclination: 71.0038°
perigee height: 834 km
apogee height: 839 km
right ascension of ascending node: 144.3555°
argument of perigee: 40.3353°
revolutions per day: 14.16649460
mean anomaly at epoch: 319.8025°
orbit number at epoch: 41921

The dashed part of the orbit path shows where the satellite is in the earth's shadow,  

DLR